LiveATC.Net - Listen to live air traffic control over the Internet!


ICAO: LSZG  IATA: ZHI   Airport: Grenchen Airport
City: Grenchen
Country: Switzerland   Continent: Europe
LSZG METAR Weather: LSZG 021850Z AUTO 23003KT 190V270 9999 FEW036 SCT050 BKN060 15/12 Q1024
LSZG ADS-B Flight Tracking (ADSBExchange)
LSZG Flight Activity (FlightAware)
LSZG Webcam:  (Airport Webcams) 

LSZG Tower
Feed Status: UP   Listeners: 0
Listen in your browser - HTML5 player (in browser, HTML5)
Click here to listen with your own player (launches your MP3 player)
Archive Access: LSZG Tower
FacilityFrequency
Grenchen Tower120.100

NOTICE

Unauthorized use prohibited. See LiveATC.net Terms of Service


Airport/ARTCC Code
Frequency Search
(e.g., 124.400, 128.75)
Site-wide search
 


Browse Feeds
Top 50 Feeds
HF Oceanic Feeds
Coverage Map
Bad Weather Areas

LiveATC FAQ
Offer LiveATC feed
Contact LiveATC.net
Press Inquiries

LiveATC on iPhone
LiveATC on Android

LiveATC Mobile
(Mobile browser)

ATC Audio Archives
Interesting Recordings

LiveATC Forums


Home Page
About LiveATC.net


Terms of Use
Privacy Policy

AIRMETs/SIGMETs

FAA Airport Status
NAS Status
Arrival Demand


Server Software By:
Icecast.org
Liquidsoap